Regional Weather Roundup
Issued by NWS Grand Forks, ND

Home | Current Version | Previous Version | Graphics & Text | Print | Product List | Glossary On
Versions: 1 2 3 4 5 6 7 8 9 10 11 12 13 14 15 16 17 18 19 20 21 22 23 24 25 26 27 28 29 30 31 32 33 34 35 36 37 38 39 40 41 42 43 44 45 46 47 48 49 50
000
ASUS43 KFGF 181531
RWRFGF
PRAIRIE TO PINES  WEATHER ROUNDUP
NATIONAL WEATHER SERVICE EASTERN NORTH DAKOTA/GRAND FORKS ND
1000 AM CDT FRI AUG 18 2017

 **SATELLITE DATA USED TO AUGMENT SKY COVER AT AUTOMATED STATIONS**
 *****  WEATHER ACROSS EASTERN NORTH DAKOTA  *****

CITY           SKY/WX    TMP DP  RH WIND       PRES   REMARKS
GRAND FORKS    PTSUNNY   73  60  63 N12       29.85S
GRAND FRKS AFB FAIR      73  57  57 N8        29.86F
DEVILS LAKE    CLOUDY    64  59  83 N5        29.90S
FARGO          FAIR      67  60  78 W5        29.88R
WAHPETON ARPT  PTSUNNY   66  59  77 NW5       29.91R
$$

 ***** WEATHER ACROSS CENTRAL AND WESTERN NORTH DAKOTA  *****

CITY           SKY/WX    TMP DP  RH WIND       PRES   REMARKS
BISMARCK       FAIR      69  57  65 NW8       29.96S
MINOT          FAIR      68  57  68 W12       29.93S
JAMESTOWN      FAIR      63  58  83 N7        29.89S
MINOT AFB      FAIR      68  56  65 NW8       29.92S
GARRISON         N/A     65  56  72 W7        29.95S
WILLISTON      FAIR      66  55  67 CALM      29.99S
DICKINSON      FAIR      69  54  58 W9        29.99R
HETTINGER      FAIR      66  53  63 NW6       30.02S
$$

 *****  OTHER AIRPORT OBSERVATIONS IN OUR AREA  *****

CITY           SKY/WX    TMP DP  RH WIND       PRES   REMARKS
WALHALLA       FAIR      66  66 100 NW8       29.85S
GRAFTON AIRPOR FAIR      68  61  77 CALM      29.88R
VALLEY CITY AR   N/A     66  61  82 N6        29.91S
CANDO          FAIR      68  63  83 W13       29.93R
CAVALIER APRT  FAIR      64  61  88 CALM      29.84S
GWINNER        CLOUDY    61  59  94 CALM      29.91R
ROLLA          FAIR      68  61  77 CALM      29.92F
 ***** THE ABOVE OBSERVATIONS ARE NON NWS ARE NOT QUALITY
       CONTROLLED AND MAY MIS-REPORT RAIN FOR SNOW...
$$

  *****  WEATHER ACROSS NORTHERN MINNESOTA  *****

CITY           SKY/WX    TMP DP  RH WIND       PRES   REMARKS
FLAG ISLAND    FAIR      66  55  68 CALM      29.82F
WARROAD        FAIR      68  61  77 NW6       29.85F
ROSEAU         FAIR      70  61  73 NW6       29.85F
HALLOCK        PTSUNNY   68  59  73 CALM      29.84S
THF RVR FALLS  FAIR      70  58  65 NW13      29.87R
BAUDETTE       FAIR      69  60  73 W3        29.84S
WASKISH        FAIR      70  61  73 W5        29.85S
CROOKSTON      FAIR      72  59  64 N10       29.86S
STEPHEN NDAWN    N/A     70  59  68 NE5         N/A
GREENBUSH NDAW   N/A     66  61  82 NW2         N/A
$$
  *****  WEATHER ACROSS CENTRAL AND WEST MINNESOTA  *****

CITY           SKY/WX    TMP DP  RH WIND       PRES   REMARKS
FOSSTON        FAIR      72  57  60 NW9       29.87S
BEMIDJI        FAIR      70  61  71 NW6       29.86S
PARK RAPIDS    FAIR      69  61  75 NW5       29.88R
ELBOW LAKE     FAIR      67  62  86 SW6       29.90R HAZE
WADENA         FAIR      66  66 100 CALM      29.89R
DETROIT LAKES  FAIR      68  61  77 NW7       29.91R
MOORHEAD       FAIR      66  61  82 CALM      29.89R
FERGUS FALLS   PTSUNNY   68  66  94 W5        29.89R
MORRIS MN      FAIR      66  63  88 SW7       29.89R
STAPLES        FAIR      64  63  94 CALM      29.89R
$$
  *****  WEATHER ELSEWHERE ACROSS MINNESOTA  *****

CITY           SKY/WX    TMP DP  RH WIND       PRES   REMARKS
DULUTH         FAIR      62  58  86 NW6       29.86R
INTRNTL FALLS  FAIR      66  60  81 VRB3      29.84S
ELY            FAIR      61  55  82 CALM      29.85S
CLOQUET        FAIR      64  57  77 NW3       29.86S
WHEATON        FAIR      68  61  77 CALM      29.90R
BRAINERD       FAIR      62  60  93 CALM      29.88R
HIBBING        FAIR      62  59  90 CALM      29.86R
ALEXANDRIA     FAIR      65  61  87 W7        29.91R
SAINT CLOUD    CLOUDY    63  62  97 CALM      29.88S
MINNEAPOLIS    CLOUDY    67  60  78 SW5       29.90R
$$

  *****  WEATHER ACROSS SOUTH DAKOTA  *****

CITY           SKY/WX    TMP DP  RH WIND       PRES   REMARKS
SIOUX FALLS    FAIR      70  63  78 SE6       29.94S
BROOKINGS      FAIR      66  60  81 S6        29.94S
WATERTOWN      FAIR      68  59  73 SW10      29.90S
HURON          FAIR      69  62  78 S9        29.90F
SISSETON         N/A     69  63  81 SW10      29.87R
ABERDEEN       FAIR      69  60  73 SW12      29.88S
MITCHELL       FAIR      69  62  78 S7        29.93R
PIERRE         FAIR      67  59  75 W8        29.93R
MOBRIDGE       FAIR      65  58  78 NW10      29.93R
RAPID CITY     FAIR      71  50  47 N9        30.06R
$$

  *****  SOME WEATHER IN NEARBY STATES *****

CITY           SKY/WX    TMP DP  RH WIND       PRES   REMARKS
GLASGOW MT     FAIR      66  50  56 SE7       29.98S
GREAT FALLS MT FAIR      68  38  33 S14       30.05R
CHEYENNE WY    FAIR      67  44  43 W6        30.26S
SCOTTSBLUFF NE FAIR      64  51  62 NW8       30.15S
OMAHA NE       FAIR      78  61  55 CALM      29.94S
DES MOINES IA  FAIR      71  62  73 CALM      29.92R
DAVENPORT IA   FAIR      72  61  68 NW6       29.94S
CHICAGO IL     CLOUDY    72  60  66 NW15      29.87R
EAU CLAIRE WI  FAIR      68  60  75 W5        29.85S
LA CROSSE WI   FAIR      73  59  61 NW6       29.87S
$$

  *****  SOME NATIONAL WEATHER *****

CITY           SKY/WX    TMP DP  RH WIND       PRES   REMARKS
LA GUARDIA NY  CLOUDY    76  75  97 VRB5      29.87S
RALEIGH NC     FAIR      88  78  72 SW7       29.94F HX 101
ATLANTA GA     PTSUNNY   83  73  72 W10       30.03S
NEW ORLEANS LA FAIR      86  79  79 NW6       30.06S HX  99
OKLAHOMA CITY  PTSUNNY   77  64  64 W10       30.04F
ALBUQUERQUE NM FAIR      70  42  36 NW6       30.26R
SALT LAKE CITY FAIR      75  45  34 SE8       30.16R
LOS ANGELES CA PTSUNNY   67  63  87 CALM      30.01R
BOISE ID       FAIR      69  41  36 S5        30.11R
SEATTLE WA     PTSUNNY   57  54  89 SW3       30.18R
$$

*** WEATHER ACROSS MANITOBA...SASKATCHEWAN AND ONTARIO ***
                ***ONTARIO***

CITY           SKY/WX    TMP DP  RH WIND       PRES   REMARKS
GERALDTON      LGT RAIN  57  57 100 N9        29.72F
THUNDER BAY    MOSUNNY   66  55  68 N8        29.76S
SIOUX LOOKOUT  MOSUNNY   64  59  82 SW6       29.81F
TORONTO        PTSUNNY   77  66  69 SW21G28   29.68F
BIG TROUT LK   SUNNY     64  59  82 S9        29.74F
PICKLE LAKE    MOSUNNY   66  55  68 S3        29.78F
DRYDEN         SUNNY     66  59  77 S6        29.82R
KENORA         PTSUNNY   70  59  68 W7        29.83S
$$
                *** MANITOBA***

CITY           SKY/WX    TMP DP  RH WIND       PRES   REMARKS
BRANDON        MOSUNNY   68  57  68 W7        29.88F
DAUPHIN        SUNNY     70  57  64 W8        29.85R
ISLAND LAKE    PTSUNNY   66  59  77 SW2       29.73F
PILOT MOUND      N/A     66  59  77 W6          N/A
THE PAS        MOSUNNY   66  55  68 W9        29.78S
THOMPSON       CLOUDY    59  54  82 SW6       29.68F
WINNIPEG       SUNNY     70  61  73 W9        29.82F
LYNN LAKE      PTSUNNY   64  55  72 MISG      29.70R
CHURCHILL      CLOUDY    61  54  77 VRB2      29.60S SMOKE
GILLAM         PTSUNNY   66  55  68 SW5       29.64F
$$
                ***SASKATCHEWAN***

CITY           SKY/WX    TMP DP  RH WIND       PRES   REMARKS
ESTEVAN        MOSUNNY   64  52  63 NW7       29.97S
KINDERSLEY     PTSUNNY   61  48  63 S6        29.93F
LLOYDMINSTER   MOSUNNY   61  52  72 SW10      29.89S
PRINCE ALBERT  MOSUNNY   64  55  72 W6        29.89S
REGINA         MOSUNNY   64  50  59 NW5       29.97S
YORKTON        SUNNY     68  57  68 W8        29.91R
N. BATTLEFORD  SUNNY     63  52  67 SW3       29.92F
LA RONGE       MOSUNNY   68  55  64 W9        29.78F
SASKATOON      MOSUNNY   63  54  72 SW5       29.93F
SWIFT CURRENT  SUNNY     70  46  43 S9        29.96F
$$
NOTE: THESE ARE AUTOMATED STATIONS WITH LIMITED QUALITY CONTROL
      "FAIR" INDICATES FEW OR NO CLOUDS BELOW 12,000 FEET WITH NO
      SIGNIFICANT WEATHER AND/OR OBSTRUCTIONS TO VISIBILITY.
      SKY/WX - SKY CONDITION AND SIGNIFICANT WEATHER.
      TMP - AIR TEMPERATURE.    DP   - DEWPOINT TEMPERATURE.
      RH  - RELATIVE HUMIDITY.  PRES - PRESSURE.
      HX  - HEAT INDEX.         WCI  - WIND CHILL INDEX.
$



USA.gov is the U.S. government's official web portal to all federal, state and local government web resources and services.